[Date Prev][Date Next][Thread Prev][Thread Next] - [Date Index][Thread Index][Author Index]
2 Line ISS Keps 4-11
- Subject: [sarex] 2 Line ISS Keps 4-11
- From: "Dave Larsen PhD" <doc@xxxxxxxxxxx>
- Date: Wed, 11 Apr 2007 06:36:26 -0700
ISS
1 25544U 98067A 07100.56489780 .00014454 00000-0 83988-4 0 9960
2 25544 051.6347 093.3468 0016014 052.3831 049.1810 15.78648763480094
----
Sent via sarex@amsat.org. Opinions expressed are those of the author.
Not an AMSAT member? Join now to support the amateur satellite program!
Subscription settings: http://amsat.org/mailman/listinfo/sarex
AMSAT Home